www.pogodaiklimat.ru
ПОГОДА в Керкуолле
Время
(UTC), дата
16 4.12
17 4.12
18 4.12
19 4.12
20 4.12
21 4.12
22 4.12
23 4.12
00 5.12
01 5.12
02 5.12
03 5.12
04 5.12
05 5.12
06 5.12
07 5.12
08 5.12
09 5.12
10 5.12
11 5.12
12 5.12
13 5.12
14 5.12
15 5.12
16 5.12
17 5.12
18 5.12
19 5.12
20 5.12
21 5.12
22 5.12
23 5.12
00 6.12
01 6.12
02 6.12
03 6.12
04 6.12
05 6.12
06 6.12
07 6.12
08 6.12
09 6.12
10 6.12
11 6.12
12 6.12
13 6.12
14 6.12
15 6.12
16 6.12
17 6.12
18 6.12
19 6.12
20 6.12
21 6.12
22 6.12
23 6.12
00 7.12
01 7.12
02 7.12
03 7.12
04 7.12
05 7.12
06 7.12
07 7.12
08 7.12
09 7.12
10 7.12
11 7.12
12 7.12
13 7.12
14 7.12
15 7.12
16 7.12
17 7.12
18 7.12
19 7.12
20 7.12
21 7.12
22 7.12
23 7.12
00 8.12
01 8.12
02 8.12
03 8.12
04 8.12
05 8.12
06 8.12
07 8.12
08 8.12
09 8.12
10 8.12
11 8.12
12 8.12
13 8.12
14 8.12
15 8.12
16 8.12
17 8.12
18 8.12
19 8.12
20 8.12
21 8.12
22 8.12
23 8.12
00 9.12
01 9.12
02 9.12
03 9.12
04 9.12
05 9.12
06 9.12
07 9.12
08 9.12
09 9.12
10 9.12
11 9.12
12 9.12
13 9.12
14 9.12
15 9.12
16 9.12
17 9.12
18 9.12
19 9.12
20 9.12
21 9.12
22 9.12
23 9.12
00 10.12
01 10.12
02 10.12
03 10.12
04 10.12
05 10.12
06 10.12
07 10.12
08 10.12
09 10.12
10 10.12
11 10.12
12 10.12
13 10.12
14 10.12
15 10.12
16 10.12
17 10.12
18 10.12
19 10.12
20 10.12
21 10.12
22 10.12
23 10.12
00 11.12
01 11.12
02 11.12
03 11.12
04 11.12
05 11.12
06 11.12
07 11.12
08 11.12
09 11.12
10 11.12
11 11.12
12 11.12
13 11.12
14 11.12
15 11.12
Ветер
(напр.,м/с)
Видим. Явления Облачность Т
(С)
Тd
(С)
f
(%)
Тe
(С)
Тes
(С)
Комфортность P
(гПа)
Po
(гПа)
Тmin
(С)
Tmax
(С)
R
(мм)
R24
(мм)
S
(см)
ЮЗ 11
{17}
30 км в посл. час дождь н/о +6.6 +3.6 81 +1 +1 тепло 1002.3 999.2
ЮЗ 11
{16}
18 км ливневой дождь н/о +4.9 +3.3 89 -2 -2 тепло 1002.2 999.0
ЮЗ 10
{23}
25 км в посл. час дождь н/о +5.2 +4.0 92 -1 -1 по сезону 1002.1 998.9 +8.4 5
ЮЗ 11-16
{17}
29 км в посл. час дождь н/о +6.5 +3.3 80 +1 +1 тепло 1001.9 998.8
ЮЗ 10
{16}
29 км н/о +6.2 +2.9 79 0 0 тепло 1001.6 998.5
ЮЗ 10
{15}
15 км в посл. час дождь н/о +6.1 +3.5 83 0 0 по сезону 1001.3 998.1
ЮЗ 10
{15}
26 км в посл. час дождь н/о +6.1 +3.7 85 0 0 по сезону 1001.2 998.0
ЮЗ 12-17
{18}
30 км в посл. час дождь н/о +6.0 +3.3 83 -1 -1 тепло 1000.5 997.3
ЮЗ 12
{16}
7000 м слаб. ливневой дождь н/о +6.2 +3.7 84 -0 -0 по сезону 999.8 996.7 0.8
ЮЗ 12-19
{19}
24 км в посл. час дождь н/о +6.4 +4.3 86 0 0 по сезону 999.2 996.1
ЮЗ 13
{21}
24 км в посл. час дождь н/о +6.6 +4.3 85 0 0 тепло 999.0 995.9
ЮЗ 14-20
{22}
25 км слаб. ливневой дождь н/о +7.2 +3.7 78 +1 +1 по сезону 998.2 995.0
ЮЗ 15 23 км в посл. час дождь н/о +7.7 +3.4 74 +2 +2 тепло 997.4 994.2
ЮЗ 15-22
{22}
8000 м в посл. час дождь н/о +7.9 +4.4 79 +2 +2 тепло 996.7 993.6
З 16-21
{23}
22 км в посл. час дождь н/о +7.9 +3.9 76 +2 +2 по сезону 996.2 993.1 +5.3 2 6.2
ЮЗ 15
{22}
20 км н/о +8.5 +4.6 76 +3 +3 тепло 995.8 992.7
ЮЗ 14
{22}
22 км н/о +8.4 +4.9 79 +3 +3 тепло 995.7 992.5
З 14-20
{21}
18 км н/о +9.0 +4.7 74 +4 +4 по сезону 995.4 992.3
ЮЗ 13
{22}
24 км в посл. час дождь н/о +9.0 +5.4 78 +4 +4 тепло 994.5 991.4
ЮЗ 12
{19}
25 км в посл. час дождь н/о +9.1 +6.0 81 +4 +4 тепло 993.9 990.8
ЮЗ 8
{17}
18 км слаб. ливневой дождь н/о +8.7 +6.1 84 +4 +4 по сезону 992.7 989.5 0.0
ЮЗ 8 11 км слаб. дождь н/о +8.2 +6.5 89 +4 +4 тепло 991.6 988.5
Ю 8 19 км в посл. час дождь н/о +7.9 +6.2 89 +3 +3 тепло 989.7 986.6
Ю 8 10 км слаб. ливневой дождь н/о +7.9 +6.6 91 +3 +3 по сезону 987.9 984.8
Ю 8 7000 м дождь н/о +7.7 +6.8 94 +3 +3 тепло 986.5 983.3
Ю 8 5000 м дождь н/о +7.7 +7.0 95 +3 +3 тепло 985.2 982.1
Ю 4 6000 м дождь н/о +8.0 +7.3 95 +4 +4 по сезону 984.7 981.6 +9.3 6
ЮЗ 5 12 км слаб. дождь н/о +7.8 +7.2 96 +4 +4 тепло 984.7 981.6
С 5 19 км слаб. дождь н/о +7.5 +6.9 96 +4 +4 тепло 985.8 982.7
СЗ 4 20 км слаб. дождь н/о +7.1 +6.4 95 +3 +3 по сезону 986.8 983.6
З 5 22 км слаб. морось с дождем н/о +6.6 +5.6 93 +2 +2 тепло 987.5 984.3
З 5 30 км в посл. час дождь н/о +6.0 +5.2 95 +1 +1 тепло 987.9 984.8
З 4 35 км н/о +7.1 +6.1 93 +3 +3 по сезону 988.3 985.1 2
З 3 30 км н/о +7.3 +6.2 93 +4 +4 тепло 987.9 984.8
ЮЗ 3 14 км слаб. ливневой дождь н/о +7.5 +6.6 94 +4 +4 тепло 987.5 984.4
ЮЗ 4 3200 м ливневой дождь н/о +7.6 +7.0 96 +4 +4 по сезону 987.4 984.3
Ю 4 4500 м слаб. морось н/о +7.6 +7.0 96 +4 +4 тепло 986.9 983.8
Ю 3 2000 м дождь н/о +7.7 +7.1 96 +5 +5 тепло 986.8 983.7
Ю 4 35 км в посл. час дождь н/о +7.5 +7.0 97 +4 +4 по сезону 986.1 983.0 +5.5 5 11.4
С 2 4600 м в посл. час морось н/о +7.7 +7.2 97 +5 +5 тепло 986.3 983.2
СВ 4 1200 м в посл. час туман н/о +7.3 +6.8 97 +4 +4 тепло 986.5 983.4
СВ 3 800 м туман н/о +7.1 +6.6 97 +4 +4 по сезону 987.0 983.8
СВ 4 1200 м в посл. час туман н/о +7.1 +6.7 97 +3 +3 тепло 987.4 984.3
СВ 5 4600 м в посл. час морось н/о +7.0 +6.7 98 +3 +3 тепло 988.0 984.9
СВ 4 65 км н/о +7.0 +6.6 97 +3 +3 по сезону 988.1 985.0 0.8
С 4 9000 м дымка н/о +7.0 +6.6 97 +3 +3 тепло 988.6 985.5
С 5 10 км в посл. час морось н/о +6.7 +6.2 97 +3 +3 тепло 989.1 986.0
С 3 >70 км в посл. час дождь н/о +6.1 +5.5 96 +3 +3 по сезону 989.6 986.4
СЗ 4 20 км слаб. ливневой дождь н/о +6.4 +5.4 93 +3 +3 тепло 990.6 987.4
СЗ 4 60 км слаб. дождь н/о +6.0 +5.1 94 +2 +2 тепло 991.6 988.4
З 3 35 км в посл. час дождь н/о +5.0 +3.9 93 +1 +1 по сезону 993.0 989.8 +8.0 1
СЗ 5 55 км ливневой дождь н/о +5.6 +3.5 86 +1 +1 тепло 994.1 990.9
СЗ 4 40 км в посл. час дождь н/о +5.4 +3.4 87 +2 +2 тепло 994.8 991.7
З 4 45 км н/о +5.2 +2.7 84 +1 +1 по сезону 995.3 992.1
З 5 45 км н/о +4.5 +2.4 86 -0 -0 тепло 996.1 993.0
З 5 60 км в посл. час дождь н/о +4.2 +1.7 84 -1 -1 тепло 996.4 993.2
З 5 45 км н/о +3.6 +1.8 88 -1 -1 по сезону 997.1 993.9 0.4
З 6
{14}
65 км в посл. час дождь н/о +3.7 +1.6 86 -2 -2 по сезону 997.4 994.2
З 5 70 км ливневой дождь н/о +3.7 +1.5 86 -2 -2 тепло 998.0 994.8
З 4 60 км в посл. час дождь н/о +2.4 +0.7 89 -3 -3 прохладно 998.2 995.0
З 4 60 км н/о +4.0 +1.2 82 -0 -0 тепло 999.2 996.0
З 4 55 км в посл. час дождь н/о +4.1 +1.6 84 -0 -0 тепло 999.6 996.4
З 3 50 км н/о +3.6 +1.2 84 -0 -0 по сезону 999.9 996.7 +2.1 1 2.6
З 5 24 км н/о +3.6 +1.8 88 -1 -1 по сезону 1000.0 996.8
З 3 45 км н/о +3.0 +1.5 90 -1 -1 тепло 1000.1 996.9
СЗ 3 13 км ливневой дождь н/о +4.1 +2.3 88 0 0 по сезону 1000.2 997.0
З 1 60 км в посл. час дождь н/о +3.6 +2.1 90 +2 +2 тепло 1000.6 997.4
ЮЗ 1 >70 км н/о +4.4 +2.1 85 +3 +3 тепло 1000.2 997.0
Ю 3 18 км слаб. ливневой дождь н/о +4.4 +2.7 89 +1 +1 по сезону 999.4 996.3 0.4
Ю 3 15 км слаб. дождь н/о +5.0 +3.7 91 +1 +1 тепло 998.3 995.2
ЮВ 4 25 км слаб. дождь н/о +5.0 +3.5 90 +1 +1 тепло 996.7 993.5
ЮВ 5 10 км слаб. дождь н/о +5.2 +4.1 93 +1 +1 по сезону 995.0 991.9
ЮВ 7 5000 м дождь н/о +6.0 +5.2 95 +1 +1 тепло 993.0 989.9
ЮВ 10
{13}
4200 м слаб. дождь н/о +6.8 +6.0 95 +1 +1 тепло 990.5 987.3
ЮВ 10
{14}
1900 м слаб. дождь н/о +7.4 +6.7 95 +2 +2 по сезону 987.6 984.5 +7.4 3
Ю 10
{14}
11 км в посл. час дождь н/о +8.1 +7.3 95 +3 +3 тепло 984.9 981.8
Ю 9
{14}
4300 м слаб. дождь н/о +8.5 +7.6 94 +3 +3 тепло 982.4 979.3
Ю 9
{13}
3800 м дождь н/о +8.7 +8.0 95 +4 +4 тепло 979.7 976.7
Ю 9 5000 м дождь н/о +9.3 +8.7 96 +5 +5 тепло 977.1 974.0
Ю 9
{13}
6000 м дождь н/о +9.6 +8.9 95 +5 +5 тепло 974.8 971.8
Ю 8 35 км слаб. морось с дождем н/о +9.7 +8.8 94 +5 +5 тепло 972.6 969.6 6
ЮЗ 8 70 км в посл. час дождь н/о +9.7 +8.7 93 +5 +5 тепло 970.7 967.6
ЮЗ 11-17
{17}
3000 м ливневой дождь н/о +9.8 +8.9 94 +5 +5 тепло 970.0 967.0
З 18-24
{24}
11 км слаб. дождь н/о +8.4 +6.3 87 +2 +2 по сезону 969.5 966.5
З 14-20
{28}
16 км слаб. дождь н/о +7.0 +4.3 83 +1 +1 тепло 970.3 967.2
З 13-20
{24}
14 км в посл. час дождь н/о +7.6 +4.1 78 +2 +2 тепло 970.3 967.2
З 14-20
{22}
40 км в посл. час дождь н/о +6.8 +2.4 74 0 0 по сезону 970.6 967.5 +6.8 8 11.0
З 14-22
{22}
16 км в посл. час дождь н/о +7.4 +4.0 79 +1 +1 тепло 970.5 967.4
З 13-19
{22}
19 км в посл. час дождь н/о +7.2 +3.7 78 +1 +1 тепло 970.6 967.6
ЮЗ 14-21
{23}
6000 м ливневой дождь н/о +5.6 +3.1 84 -2 -2 по сезону 971.0 967.9
ЮЗ 10
{23}
23 км в посл. час дождь н/о +5.7 +3.4 85 -1 -1 тепло 970.9 967.8
ЮЗ 11
{15}
27 км в посл. час дождь н/о +6.4 +4.3 86 0 0 тепло 970.4 967.3
ЮЗ 12-17
{17}
30 км в посл. час дождь н/о +6.1 +3.8 85 -0 -0 по сезону 969.9 966.8 1
ЮЗ 12-17
{17}
30 км в посл. час дождь н/о +6.2 +3.7 84 -0 -0 тепло 969.5 966.5
ЮЗ 11
{17}
35 км в посл. час дождь н/о +6.3 +3.6 83 0 0 тепло 968.9 965.8
ЮЗ 11
{16}
26 км слаб. ливневой дождь н/о +6.1 +3.5 83 -0 -0 по сезону 968.8 965.7
ЮЗ 10
{15}
35 км слаб. дождь н/о +5.6 +4.1 90 -1 -1 тепло 968.7 965.6
ЮЗ 9
{13}
35 км в посл. час дождь н/о +5.8 +4.5 91 -0 -0 тепло 969.2 966.1
З 5 55 км в посл. час дождь н/о +5.1 +2.9 86 0 0 по сезону 969.7 966.6 +7.6 3
З 6 30 км в посл. час дождь н/о +5.4 +4.0 91 0 0 тепло 970.3 967.2
З 8 35 км ливневой дождь н/о +5.1 +3.3 88 -1 -1 тепло 970.4 967.3
С 16-22
{22}
14 км в посл. час дождь н/о +6.6 +4.7 88 -1 -1 по сезону 970.8 967.7
С 16-23
{25}
18 км слаб. ливневой дождь н/о +6.4 +3.6 82 -1 -1 тепло 974.7 971.7
С 16-22
{23}
24 км слаб. ливневой дождь н/о +6.0 +2.7 79 -1 -1 тепло 978.9 975.8
С 13-19
{26}
16 км в посл. час дождь н/о +6.1 +3.1 81 -1 -1 по сезону 982.9 979.8 0.8
С 15
{21}
16 км н/о +6.3 +2.1 74 -1 -1 тепло 986.0 982.9
С 13
{20}
20 км н/о +5.5 +0.8 72 -1 -1 тепло 989.0 985.9
С 14
{20}
18 км в посл. час дождь н/о +5.3 +1.4 76 -2 -2 по сезону 991.8 988.6
С 14
{20}
15 км слаб. ливневой дождь н/о +5.0 +0.8 74 -2 -2 тепло 994.1 991.0
С 13
{18}
22 км в посл. час дождь н/о +4.9 +1.0 76 -2 -2 тепло 996.4 993.2
С 12-17
{21}
23 км н/о +4.1 +0.7 78 -3 -3 по сезону 998.5 995.3 +3.9 0.8 3.8
С 11
{21}
30 км в посл. час дождь н/о +4.3 -0.6 70 -2 -2 тепло 1000.7 997.5
С 13
{21}
19 км слаб. ливневой дождь н/о +4.7 -0.4 69 -2 -2 тепло 1002.8 999.7
С 13
{20}
30 км в посл. час дождь н/о +4.6 -2.3 61 -2 -2 по сезону 1005.0 1001.8
С 11
{18}
35 км н/о +4.4 -2.6 60 -2 -2 тепло 1006.8 1003.6
СЗ 10
{17}
28 км в посл. час дождь н/о +4.6 -1.6 64 -2 -2 тепло 1008.3 1005.1
СЗ 9
{16}
45 км н/о +4.8 -4.7 50 -1 -1 по сезону 1009.5 1006.3 0.4
С 8
{15}
40 км в посл. час дождь н/о +4.0 -3.1 60 -2 -2 по сезону 1010.4 1007.1
С 7 45 км н/о +4.1 -3.4 58 -1 -1 тепло 1010.9 1007.7
З 5 35 км н/о +3.1 -3.9 60 -1 -1 по сезону 1012.3 1009.1
СЗ 4 35 км н/о +1.9 -3.7 66 -2 -2 тепло 1012.7 1009.4
З 2 27 км н/о +1.5 -2.8 73 -2 -2 тепло 1013.3 1010.0
В 1 40 км н/о +1.2 -3.6 70 -0 -0 по сезону 1012.6 1009.3 +5.0 0.4
Ю 5 35 км н/о +1.4 -2.7 74 -4 -4 по сезону 1012.9 1009.7
Ю 5 30 км н/о +1.7 -1.6 79 -4 -4 тепло 1012.3 1009.0
Ю 5 29 км н/о +3.2 -0.5 77 -2 -2 по сезону 1011.8 1008.5
Ю 6 30 км н/о +4.6 0.0 72 -1 -1 тепло 1010.1 1006.8
Ю 8
{13}
16 км слаб. ливневой дождь н/о +4.2 +1.2 81 -2 -2 тепло 1009.1 1005.8
Ю 9
{13}
23 км в посл. час дождь н/о +4.9 +2.8 86 -1 -1 по сезону 1007.1 1003.9 0.8
Ю 11
{15}
28 км в посл. час дождь н/о +6.0 +3.1 82 -0 -0 по сезону 1005.1 1001.9
Ю 11
{17}
30 км н/о +6.2 +3.4 82 -0 -0 тепло 1003.3 1000.1
Ю 11
{16}
29 км н/о +6.4 +3.5 82 0 0 по сезону 1001.3 998.1
Ю 10
{16}
21 км н/о +6.7 +4.2 84 +1 +1 тепло 998.9 995.7
Ю 12
{18}
19 км слаб. ливневой дождь н/о +6.5 +4.7 88 0 0 тепло 996.4 993.2
Ю 13-19
{19}
21 км в посл. час дождь н/о +7.0 +4.6 85 +1 +1 по сезону 993.0 989.8 +0.4 2 2.2
Ю 15-20
{21}
18 км н/о +7.4 +4.6 82 +1 +1 тепло 990.7 987.5
Ю 14-19
{21}
13 км слаб. ливневой дождь н/о +7.7 +5.5 86 +1 +1 тепло 987.7 984.5
Ю 15-22
{22}
6000 м слаб. ливневой дождь н/о +7.8 +5.8 87 +1 +1 по сезону 984.8 981.7
Ю 16-23
{23}
12 км слаб. дождь н/о +7.8 +6.5 91 +1 +1 тепло 982.3 979.2
Ю 15-21
{23}
14 км в посл. час дождь н/о +8.2 +6.3 88 +2 +2 тепло 979.9 976.8
Ю 13-19
{21}
14 км н/о +8.7 +6.6 87 +3 +3 по сезону 977.9 974.8 1
Ю 13-21
{21}
14 км н/о +9.0 +7.0 87 +3 +3 тепло 975.5 972.4
Ю 12-19
{19}
13 км н/о +9.1 +7.3 88 +4 +4 тепло 973.5 970.5
З 9
{19}
5000 м ливневой дождь н/о +8.0 +6.8 92 +3 +3 по сезону 974.7 971.7
З 11 35 км слаб. дождь н/о +6.8 +5.4 91 +1 +1 тепло 975.2 972.2
З 11
{18}
30 км в посл. час дождь н/о +6.3 +4.6 89 -0 -0 тепло 975.9 972.8
ЮЗ 13-18
{18}
30 км в посл. час дождь н/о +6.3 +3.0 79 -0 -0 по сезону 976.0 972.9 +9.4 5
ЮЗ 12-17
{20}
27 км в посл. час дождь н/о +6.6 +3.0 78 0 0 по сезону 976.1 973.0
ЮЗ 15
{21}
30 км н/о +6.1 +1.9 74 -1 -1 тепло 976.8 973.7
ЮЗ 12
{20}
12 км слаб. ливневой дождь н/о +6.0 +3.1 82 -1 -1 по сезону 977.6 974.5
ЮЗ 13
{18}
30 км в посл. час дождь н/о +5.8 +2.6 80 -1 -1 по сезону 978.0 974.9
ЮЗ 14-20
{20}
35 км в посл. час дождь н/о +6.4 +1.8 72 -0 -0 тепло 979.2 976.1
ЮЗ 13-19
{20}
30 км слаб. ливневой дождь н/о +5.2 +2.8 84 -2 -2 по сезону 980.3 977.2 0.4
ЮЗ 12-17
{20}
15 км в посл. час дождь н/о +5.6 +3.0 83 -1 -1 по сезону 981.3 978.2
ЮЗ 13
{21}
7000 м слаб. ливневой дождь н/о +5.0 +2.2 82 -2 -2 тепло 982.0 978.9
ЮЗ 13
{21}
26 км в посл. час дождь н/о +5.0 +1.2 76 -2 -2 по сезону 982.2 979.1
ЮЗ 10
{15}
21 км н/о +4.7 +1.1 77 -2 -2 по сезону 982.3 979.1
ЮЗ 14-20
{20}
21 км н/о +4.8 +1.1 77 -3 -3 тепло 982.2 979.1
ЮЗ 15-20
{21}
40 км н/о +4.4 +1.1 79 -3 -3 прохладно 982.5 979.3 +4.1 0.8 5.6
ЮЗ 13
{22}
45 км н/о +3.6 +1.2 84 -4 -4 по сезону 982.3 979.2
Ю 11
{17}
45 км н/о +3.9 +1.5 84 -3 -3 тепло 982.8 979.6
ЮЗ 12-18
{18}
45 км в посл. час дождь н/о +3.7 +1.4 85 -4 -4 прохладно 981.8 978.7
Ю 12
{17}
55 км н/о +3.8 +1.1 83 -4 -4 по сезону 981.6 978.4
ЮЗ 13
{19}
40 км н/о +4.8 +1.0 76 -2 -2 тепло 981.3 978.1
ЮЗ 13
{22}
30 км н/о +4.9 +1.4 78 -2 -2 прохладно 980.3 977.2 0.2
ЮЗ 14-20
{23}
40 км н/о +4.9 +1.1 76 -2 -2 по сезону 979.9 976.7
ЮЗ 16-22
{27}
35 км слаб. ливневой дождь н/о +4.2 +1.3 81 -4 -4 тепло 979.4 976.2
ЮЗ 15-21
{24}
35 км слаб. ливневой дождь н/о +3.9 +1.7 86 -4 -4 прохладно 978.7 975.5
Местоположение метеостанции Керкуолл (Великобритания): широта 58.95 долгота -2.90 высота над уровнем моря 26 м.
В архиве по умолчанию представлена погода в Керкуолле за последнюю неделю. Архивные данные за месяц целиком и за предыдущие месяцы, начиная с января 2011 года, Вы можете получить, выбрав интересующий диапазон дат из раскрывающегося списка и нажав кнопку "Найти!".
*Определитесь, кто Вы:
Внимание! Время в таблицах - всемирное. Для получения местного времени необходимо прибавить поправку, которая равна 0 ч.
Смотрите также архив погоды в соседних городах и на ближайших метеорологических станциях:
Партнеры нашего сайта:      
Пояснения к столбцам:
  • Ветер - указаны скорость ветра в м/с - средняя за 10 мин, порывы в срок и между сроками (в фигурных скобках) и направление, откуда дует ветер: С - северный,
  • СВ - северо-восточный, В - восточный, ЮВ - юго-восточный, Ю - южный, ЮЗ - юго-западный, З - западный, СЗ - северо-западный.
  • Видимость - горизонтальная дальность видимости в метрах или километрах. При видимости от 1 до 10 км при отсутствии осадков обычно наблюдается дымка, при ухудшении видимости до 1 км и менее - туман. В сухую погоду видимость может ухудшаться дымом, пылью или мглою.
  • Явления - указаны атмосферные явления, наблюдавшиеся в срок или в последний час перед сроком; фигурными скобками обозначены явления, наблюдавшиеся между сроками (за 1-3 часа до срока); квадратными скобками обозначены град или гололедные отложения с указанием их диаметра в мм.
  • Облачность - указаны через наклонную черту общая и нижняя облачность в баллах и высота нижней границы облаков в метрах; квадратными скобками обозначены формы облаков: Ci - перистые, Cs - перисто-слоистые, Cc - перисто-кучевые, Ac - высококучевые, As - высокослоистые, Sc - слоисто-кучевые, Ns - слоисто-дождевые, Cu - кучевые, Cb - кучево-дождевые. Подробнее классификацию облаков см. в Атласе облаков (PDF).
  • T - Температура воздуха - температура, измеренная на высоте 2 м над землей.
  • Td - Температура точки росы - температура, при понижении до которой содержащийся в воздухе водяной пар достигнет насыщения.
  • f - Относительная влажность воздуха - влажноcть воздуха, измеренная на высоте 2 м над землей.
  • Te - Эффективная температура - температура, которую ощущает одетый по сезону человек в тени. Характеристика душности погоды. При расчете учитывается влияние влажности воздуха и скорости ветра на теплоощущения человека.
  • Tes - Эффективная температура на солнце - температура, которую ощущает человек, с поправкой на солнечный нагрев. Характеристика знойности погоды. Зависит от высоты солнца над горизонтом, облачности и скорости ветра. Ночью, в пасмурную погоду, а также при ветре 12 м/с и более поправка равна нулю.
  • P - Атмосферное давление - приведенное к уровню моря атмосферное давление.
  • Po - Атмосферное давление - измеренное на уровне метеостанции атмосферное давление.
  • Tmin - Минимальная температура - минимум температуры воздуха на высоте 2 м над землей.
  • Tmax - Максимальная температура - максимум температуры воздуха на высоте 2 м над землей.
  • R - Количество осадков - Количество выпавших осадков за период времени, мм. При наведении курсора мыши на число - период времени, за который выпало указанное количество осадков.
  • R24 - Количество осадков - Количество выпавших осадков за 24 часа, мм.
  • S - Снежный покров - Высота снежного покрова, см. При наведении курсора мыши на число - состояние снежного покрова и степень покрытия местности в баллах.